Location: Arbon
(43.0005°N, 0.7472°E)
Time: 10:25:50
(UTC+00:00)

COSMOS 2455 - Pass Details

Date: 22 April 2026
Orbit: 901 x 907 km, 67.1° (Epoch: 20 May)

Event Time Altitude Azimuth Distance (km) Brightness Sun altitude
Rises 21:32:13 0° 332° (NNW) 3,542 7.2 -25.6°
Reaches altitude 10° 21:34:48 10° 336° (NNW) 2,597 6.2 -25.9°
Maximum altitude 21:40:44 57° 55° (NE) 1,057 3.1 -26.6°
Enters shadow 21:41:18 55° 79° (ENE) 1,081 3.0 -26.6°
